Location: Ehrke Reservoir
(40.0279°N, 99.6641°W)
Time: 10:45:53
(UTC+00:00)

Cosmos 1939 Rocket - Pass Details

Date: 20 January 2020
Orbit: 534 x 583 km, 97.4° (Epoch: 16 February)

Event Time Altitude Azimuth Distance (km) Brightness Sun altitude
Rises 00:55:36 0° 150° (SSE) 2,674 6.2 -14.0°
Reaches altitude 10° 00:57:46 10° 143° (SE) 1,792 5.2 -14.4°
Maximum altitude 01:01:24 40° 73° (ENE) 807 3.1 -15.1°
Drops below altitude 10° 01:05:06 10° 3° (N) 1,827 5.3 -15.8°
Sets 01:07:20 0° 356° (N) 2,733 6.3 -16.2°
